0 RELAY 1 (A-15) 1 503U 62068A 25354.11439493 -.00000024 00000-0 00000+0 0 9999 2 503 47.5114 294.3591 2839714 1.3837 7.1031 7.78168439791542 0 TELSTAR 2 (A-41) 1 00573U 63013A 25351.51354015 .00000028 00000-0 32205-4 0 9994 2 00573 42.7614 176.2334 4017189 289.8182 41.6792 6.39264285574533 0 RELAY 2 1 737U 64003A 25353.94469019 -.00000017 00000-0 00000+0 0 9998 2 737 46.4419 187.4229 2595095 180.2723 179.6416 7.39535816672835 0 ELEKTRON 1 1 746U 64006A 25354.19702994 .00001188 00000-0 34507-3 0 9993 2 746 60.8816 70.7418 2993465 181.1401 178.1150 9.10410726 50940 0 ELEKTRON 3 1 829U 64038A 25354.19016985 .00000925 00000-0 26795-3 0 9996 2 829 60.8200 88.7482 2940008 301.0685 33.3917 9.20721247998950 0 LES 2 1 01360U 65034B 25343.21362558 .00000004 00000-0 00000-0 0 9991 2 01360 32.1055 133.1846 3963874 243.7277 70.5794 4.64830626 29031 0 OPS 6577 (VELA 5) 1 01458U 65058A 25352.69678054 -.00000973 00000-0 00000-0 0 9994 2 01458 26.9506 18.1287 4994903 311.0310 359.1361 0.21365937 11671 0 INTELSAT 2-F1 1 2514U 66096A 25353.69344069 -.00000308 00000-0 00000+0 0 9999 2 2514 17.3195 89.3024 6384921 119.0330 318.3552 2.00426091 91210 0 OV1-13 1 3173U 68026A 25353.88023985 .00000071 00000-0 10072-3 0 9998 2 3173 99.9316 336.4787 3849304 75.5455 323.4285 7.25786594525195 0 OV1-14 1 3174U 68026B 25353.37678711 .00000054 00000-0 91856-4 0 9997 2 3174 100.0140 305.0189 4001230 74.5385 16.2931 6.96710200463793 0 OV1-19 1 03825U 69025C 25352.89382590 .00000573 00000-0 29016-3 0 9997 2 03825 104.7062 148.7474 2680934 228.4312 105.4001 9.58209797967974 0 OPS 7724 1 06791U 73056A 25352.20098461 -.00000484 00000-0 -29008-2 0 9990 2 06791 62.4787 52.2025 7312351 279.1105 11.8186 2.00650915 45981 0 COSMOS 606 1 6916U 73084A 25354.17681550 -.00000434 00000-0 00000+0 0 9997 2 6916 72.8081 77.9422 5060048 126.9658 336.2339 2.00780596381874 0 MOLNIYA 2-9 1 07276U 74026A 25352.70475515 -.00000121 00000-0 00000-0 0 9997 2 07276 64.3981 47.8310 6658601 264.7393 22.1064 2.45097361280590 0 MOLNIYA 2-10 1 7376U 74056A 25353.20146061 .00000103 00000-0 00000+0 0 9996 2 7376 65.3407 318.5932 6772457 271.7252 18.1610 2.01058524376117 0 COSMOS 706 1 07625U 75007A 25353.41054022 -.00000755 00000-0 00000-0 0 9993 2 07625 64.0167 172.7614 6864811 3.1048 359.5755 2.00767768232834 0 MOLNIYA 1-29 1 07780U 75036A 25352.30656008 .00000100 00000-0 -55616-1 0 9994 2 07780 63.8626 81.6163 6857806 280.0776 14.6777 2.00585498371295 0 MOLNIYA 2-14 1 08195U 75081A 25352.34853945 .00001107 00000-0 00000-0 0 9991 2 08195 64.4458 53.4643 6829879 284.8322 13.4331 2.02081219368758 0 MOLNIYA 1-32 1 8601U 76006A 25353.34901808 -.00000891 00000-0 00000+0 0 9993 2 8601 63.6496 153.2100 6708059 277.7515 16.4863 2.00041138 78284 0 COSMOS 862 1 9495U 76105A 25353.52599590 .00000671 00000-0 00000+0 0 9991 2 9495 70.3039 47.8873 6297422 187.0386 156.1565 2.00510673238054 0 MOLNIYA 1-36 1 9880U 77021A 25353.37136116 -.00000704 00000-0 00000+0 0 9999 2 9880 63.6701 128.9174 6699590 282.6440 14.9489 2.00823132255066 0 ESA/GOES 1 09931U 77029A 25352.13865647 -.00000467 00000-0 00000-0 0 9992 2 09931 27.1338 72.6358 6579829 259.7316 25.3920 1.96176683348304 0 COSMOS 931 1 10150U 77068A 25353.40992201 .00000540 00000-0 00000+0 0 9998 2 10150 70.4530 64.1141 5423877 329.0441 8.1154 2.00608452355159 0 MOLNIYA 3-8 1 10455U 77105A 25351.62465741 .00000398 00000-0 00000-0 0 9996 2 10455 63.6970 194.9537 6757619 278.3808 15.9693 2.00400291352802 0 MOLNIYA 1-40 1 10925U 78055A 25350.75879519 .00000366 00000-0 00000-0 0 9993 2 10925 63.9596 240.9776 6852836 276.2257 16.0506 2.00500570348328 0 MOLNIYA 3-10 1 11057U 78095A 25354.13575331 -.00000253 00000-0 -44648-2 0 9990 2 11057 63.7015 307.5775 5585882 313.5818 11.7868 4.09913716436264 0 GORIZONT 1 1 11158U 78118A 25353.92450002 -.00000180 00000-0 00000+0 0 9990 2 11158 12.1341 159.6424 3087918 350.2490 4.7643 1.00275438121143 0 AYAME 1 (ECS 1) 1 11261U 79009A 25353.02921382 -.00000099 00000-0 00000-0 0 9990 2 11261 9.9426 313.3860 3662448 121.4193 300.4496 1.68582213173127 0 COSMOS 1109 1 11417U 79058A 25353.70028212 -.00000334 00000-0 00000+0 0 9993 2 11417 70.5934 200.8542 5907472 202.4308 114.3734 2.01408768230226 0 SATCOM 3 1 11635U 79101A 25352.30685233 -.00000066 00000-0 00000-0 0 9994 2 11635 8.5666 99.8845 4788151 73.0071 319.9052 1.82525728220669 0 AYAME 2 (ECS-2) 1 11715U 80018A 25352.51840360 -.00000100 00000-0 00000-0 0 9998 2 11715 9.3895 49.7264 4382379 270.2171 155.8703 1.75494762231863 0 COSMOS 1191 1 11871U 80057A 25353.49579343 .00000167 00000-0 00000+0 0 9993 2 11871 65.7766 88.5437 6665983 21.7053 356.6200 2.00852316239859 0 MOLNIYA 3-13 1 11896U 80063A 25351.96603736 .00000238 00000-0 31612-3 0 9997 2 11896 63.7893 315.0619 7266947 277.7262 12.5013 2.00628276332768 0 COSMOS 1217 1 12032U 80085A 25352.04752350 -.00000416 00000-0 00000-0 0 9994 2 12032 70.0988 186.8080 5644973 246.1451 46.4433 2.01015470278588 0 COSMOS 1223 1 12078U 80095A 25352.27084787 .00000021 00000-0 00000-0 0 9993 2 12078 73.0898 52.1995 4716320 308.9100 62.8004 2.00842726330007 0 OPS 5805 1 12093U 80100A 25348.96448060 -.00000053 00000-0 00000-0 0 9992 2 12093 63.9529 218.6088 6481881 269.5760 21.6019 2.00592400 48468 0 KIKU 3 (ETS 4) 1 12295U 81012A 25351.48261053 .00025343 00000-0 21557-2 0 9995 2 12295 28.4125 181.5523 4776281 80.3143 328.7140 6.04493714630127 0 COSMOS 1247 1 12303U 81016A 25352.87826022 -.00000025 00000-0 00000+0 0 9994 2 12303 68.9529 7.6210 6266489 344.3482 2.8740 2.02490149331521 0 COSMOS 1261 1 12376U 81031A 25353.25795456 -.00000686 00000-0 00000+0 0 9993 2 12376 68.6858 100.0317 5953875 355.2765 0.8772 2.00881871223869 0 CAT 3 1 12546U 81057C 25354.17363333 .00002367 00000-0 46750-3 0 9990 2 12546 10.2229 356.2588 5701784 141.5712 277.4797 4.49321966406991 0 DYNAMICS EXPLORER 1 1 12624U 81070A 25354.01795376 .00000063 00000-0 19649-3 0 9999 2 12624 90.9270 45.8907 6203653 261.5980 28.3054 3.52898796718839 0 COSMOS 1285 1 12627U 81071A 25353.47983346 .00000363 00000-0 00000+0 0 9998 2 12627 68.3818 102.7941 6105812 356.8199 10.9487 1.98060297242944 0 COSMOS 1305 1 12818U 81088A 25352.26576103 .00000121 00000-0 39659-3 0 9991 2 12818 62.7668 92.5260 4887265 265.7556 39.3087 5.46252735882879 0 CAT 4 1 13011U 81122B 25353.02220674 .00001227 00000-0 38025-3 0 9994 2 13011 10.4175 244.9946 6507271 108.0912 329.0177 3.28862413354922 0 MOLNIYA 1-52 1 13012U 81123A 25352.34638146 .00000110 00000-0 -85020-3 0 9995 2 13012 61.6435 97.2095 7372941 273.0114 13.1044 2.00887060322255 0 MOLNIYA 1-53 1 13070U 82015A 25353.17114294 -.00001112 00000-0 -92282-2 0 9996 2 13070 63.3085 60.4651 7089731 283.8106 12.0724 2.00424038320951 0 COSMOS 1348 1 13124U 82029A 25352.36266554 .00000067 00000-0 00000-0 0 9999 2 13124 71.8339 152.0216 4957374 337.6743 228.4786 2.00282888319764 0 COSMOS 1382 1 13295U 82064A 25353.85727580 -.00000736 00000-0 00000+0 0 9996 2 13295 62.3089 169.0551 7175436 41.1828 354.9042 2.00546388276967 0 MOLNIYA 3-20 1 13875U 83015A 25352.45750831 -.00000985 00000-0 00000-0 0 9994 2 13875 62.0003 169.4391 7075506 270.3065 16.2446 2.00638754249398 0 MOLNIYA 1-56 1 13890U 83019A 25352.65394655 .00001226 00000-0 00000-0 0 9993 2 13890 62.5297 191.9544 7017787 273.8308 15.5258 1.99957529312205 0 ASTRON 1 13901U 83020A 25350.71469093 -.00001366 00000-0 00000-0 0 9998 2 13901 78.7920 59.7623 6214053 47.9898 0.1531 0.24284603 10704 0 OV2-3 1 13912U 65108V 25354.01090943 .00015451 00000-0 10763-2 0 9996 2 13912 26.5850 263.1000 5258662 208.3340 108.7441 5.25417485561222 0 OSCAR 10 1 14129U 83058B 25353.68399690 -.00000211 00000-0 00000-0 0 9994 2 14129 26.0411 249.9931 6064485 65.5730 344.6844 2.05874384291791 0 COSMOS 1481 1 14182U 83070A 25350.11966139 .00000296 00000-0 00000-0 0 9992 2 14182 70.7299 261.5623 5588702 235.6281 58.5561 2.03568868236376 0 STTW-T1 1 14670U 84008A 25354.18517029 .00000771 00000-0 35276-3 0 9991 2 14670 36.1341 35.2693 2973812 202.5686 141.1384 9.03938601367903 0 COSMOS 1541 1 14790U 84024A 25354.02762053 .00000127 00000-0 00000+0 0 9992 2 14790 71.7620 155.3762 5210054 345.6970 216.6414 2.00560880278343 0 COSMOS 1547 1 14884U 84033A 25352.87850440 -.00000777 00000-0 00000-0 0 9998 2 14884 73.0191 339.2897 5681950 256.7086 37.1046 2.00430715245719 0 COSMOS 1581 1 15095U 84071A 25354.13492471 .00000000 00000-0 00000+0 0 9999 2 15095 67.1301 32.9583 6706630 5.8351 359.3845 1.99679607276893 0 CCE 1 (AMPTE) 1 15199U 84088A 25354.05492071 -.00000109 00000-0 00000+0 0 9990 2 15199 3.9772 295.9955 7656003 25.0027 108.2327 1.53321555197686 0 USA 4 1 15226U 84091A 25351.32810571 -.00000520 00000-0 00000-0 0 9999 2 15226 63.0060 103.1722 6511977 282.8756 16.1806 2.00964656 47060 0 COSMOS 1596 1 15267U 84096A 25352.62075554 .00000717 00000-0 00000-0 0 9994 2 15267 65.8579 147.5276 6668628 26.9958 355.7024 2.00597123302387 0 COSMOS 1604 1 15350U 84107A 25353.33551105 -.00000010 00000-0 00000+0 0 9996 2 15350 72.1600 4.4420 5477746 331.5478 7.1516 2.00642941301773 0 MOLNIYA 1-63 1 15429U 84124A 25354.00506719 -.00001627 00000-0 00000+0 0 9993 2 15429 63.3140 15.8607 7267247 257.0017 15.1593 2.00766333300461 0 MOLNIYA 3-24 1 15738U 85040A 25351.63691061 .00000242 00000-0 80838-3 0 9997 2 15738 62.3783 188.9085 6868906 255.5623 24.7707 2.55669863336576 0 COSMOS 1661 1 15827U 85049A 25349.93790059 .00000766 00000-0 00000-0 0 9993 2 15827 67.8453 119.2946 5741017 65.8373 342.5573 2.00777635296617 0 COSMOS 1675 1 15952U 85071A 25350.40422727 -.00000001 00000-0 00000-0 0 9998 2 15952 65.6704 73.6457 6228938 277.3281 20.3501 3.14133595383955 0 COSMOS 1684 1 16064U 85084A 25353.32153699 .00000584 00000-0 00000+0 0 9994 2 16064 67.6302 91.8440 5141673 99.5308 319.5878 2.00791531294712 0 COSMOS 1687 1 16103U 85088A 25350.07459442 .00000561 00000-0 00000-0 0 9992 2 16103 71.6498 17.8995 5592615 344.0400 233.4697 2.00769781294576 0 COSMOS 1698 1 16183U 85098A 25352.60245161 .00000044 00000-0 00000+0 0 9998 2 16183 71.2810 111.9702 5247154 354.2971 2.2952 2.00680342294123 0 MOLNIYA 3-27 1 16393U 85117A 25345.75250638 .00000108 00000-0 -79285-3 0 9993 2 16393 62.1442 253.1347 7130004 249.9533 25.1577 2.12406400301222 0 COSMOS 1729 1 16527U 86011A 25354.19280913 .00000154 00000-0 00000+0 0 9998 2 16527 70.8317 195.0663 4441411 44.6663 92.8920 2.00437828292161 0 VIKING 1 16614U 86019B 25353.88740036 .00000014 00000-0 -30888-4 0 9993 2 16614 98.7987 223.6717 4705416 341.4434 9.9914 5.50587487800386 0 COSMOS 1761 1 16849U 86050A 25352.53950681 -.00000420 00000-0 00000-0 0 9998 2 16849 70.3479 53.5633 5704794 8.7423 23.1161 2.00567761288977 0 MOLNIYA 1-69 1 17078U 86089A 25353.26483908 .00001314 00000-0 44447-2 0 9996 2 17078 63.6520 37.5933 7310749 252.7763 21.4105 2.00978486286520 0 COSMOS 1806 1 17213U 86098A 25354.06194074 .00000152 00000-0 00000+0 0 9992 2 17213 68.5686 152.6179 4671049 83.4354 324.2791 2.00467939285704 0 MOLNIYA 3-31 1 17328U 87008A 25352.92018221 .00000489 00000-0 76536-3 0 9997 2 17328 62.3251 301.0630 7400569 257.8762 18.2571 2.00686690281555 0 USA 21 1 17506U 87015A 25354.04893841 .00000889 00000-0 -64201-2 0 9997 2 17506 62.9286 281.3760 7305502 277.7036 12.3975 2.01375283 41637 0 COSMOS 1851 1 18103U 87050A 25352.53786390 .00000163 00000-0 00000-0 0 9991 2 18103 70.8681 193.9589 4551630 44.2337 8.7929 2.00362963282172 0 COSMOS 1903 1 18701U 87105A 25352.19772321 .00000182 00000-0 00000-0 0 9998 2 18701 68.9688 200.9966 4484851 100.0417 311.8928 2.00505884279049 0 COSMOS 1922 1 18881U 88013A 25352.37532392 .00000651 00000-0 00000+0 0 9998 2 18881 68.6900 83.0000 5854566 48.0100 348.7887 2.00421518276902 0 MOLNIYA 1-71 1 18946U 88017A 25352.96610573 .00001758 00000-0 73967-3 0 9992 2 18946 62.0536 284.5854 7395678 265.3783 15.4335 2.00441852276740 0 USA 31 1 19458U 88077A 25353.59902885 -.00000816 00000-0 -12828-1 0 9990 2 19458 27.2791 61.9531 7294085 95.9039 343.1725 2.00845141 11712 0 COSMOS 1974 1 19554U 88092A 25348.30530839 .00000173 00000-0 00000-0 0 9995 2 19554 70.0371 191.7061 4381918 68.6011 67.1169 2.00615517272429 0 COSMOS 1977 1 19608U 88096A 25352.83100176 -.00000206 00000-0 00000-0 0 9997 2 19608 69.0855 123.8874 5436221 55.1676 343.4727 2.00303052272179 0 MOLNIYA 1-75 1 19807U 89014A 25351.72595477 .00000748 00000-0 00000-0 0 9998 2 19807 63.8254 157.8842 6725563 256.8757 25.5445 2.00503180269645 0 HIPPARCOS 1 20169U 89062B 25353.73944606 -.00000062 00000-0 46911-4 0 9994 2 20169 7.2155 25.4869 7196481 210.3762 74.0225 2.26409463265291 0 COSMOS 2050 1 20330U 89091A 25352.52560196 -.00000669 00000-0 00000-0 0 9998 2 20330 65.2105 97.1986 6026548 165.7572 224.5875 2.00482078264188 0 COSMOS 2063 1 20536U 90026A 25353.81987218 -.00000522 00000-0 00000+0 0 9994 2 20536 66.7002 180.1068 5552375 134.2156 287.6233 1.99607373260472 0 COSMOS 2087 1 20707U 90064A 25352.89611935 -.00000321 00000-0 00000-0 0 9991 2 20707 67.7478 197.9299 6150599 29.2535 354.4518 2.00649625259217 0 CRRES 1 20712U 90065A 25353.65460397 -.00000057 00000-0 93200-4 0 9991 2 20712 18.1399 17.7372 7068483 142.8277 297.5660 2.49807680305219 0 MOLNIYA 1-80 1 21118U 91012A 25353.08019199 -.00000469 00000-0 00000+0 0 9990 2 21118 64.8928 210.2821 6321638 258.9859 28.6401 2.05243992257262 0 MOLNIYA 3-40 1 21196U 91022A 25349.61596772 -.00000640 00000-0 00000-0 0 9990 2 21196 64.7121 204.6163 6400601 256.6461 29.2095 2.03022443255617 0 MOLNIYA 1-81 1 21426U 91043A 25353.62597534 .00000323 00000-0 00000+0 0 9998 2 21426 63.4160 198.0793 6736699 259.3661 24.0926 2.00584496252866 0 MOLNIYA 3-41 1 21706U 91065A 25353.96248870 -.00001328 00000-0 44365-3 0 9999 2 21706 63.2049 350.1744 7423037 251.7991 20.7870 2.04452565253058 0 USA 72 1 21775U 91076A 25349.16643643 -.00000030 00000-0 00000-0 0 9995 2 21775 63.3680 285.9619 3359216 272.8958 49.9157 5.53395703 32370 0 STTW-5 1 21833U 91088A 25352.09579106 -.00000034 00000-0 00000-0 0 9995 2 21833 31.4233 109.7958 6598510 141.5392 291.8714 2.27647689355111 0 GEOTAIL 1 22049U 92044A 25355.92051002 -.00001629 00000-0 00000-0 0 9994 2 22049 45.1177 354.2720 5925732 270.4277 359.8243 0.19278967 15424 0 MOLNIYA 3-42 1 22178U 92067A 25352.08254097 -.00000167 00000-0 00000-0 0 9991 2 22178 64.5022 69.1915 6912530 249.0432 28.1956 2.20433231108260 0 COSMOS 2232 1 22321U 93006A 25353.87789293 -.00000555 00000-0 00000+0 0 9994 2 22321 67.2687 193.7980 5513879 129.1426 294.3913 2.00472614240809 0 ARASENE 1 22654U 93031B 25352.82267159 -.00000075 00000-0 00000-0 0 9995 2 22654 4.9777 52.3390 2841405 324.4994 38.1546 1.42202875164869 0 MOLNIYA 1-86 1 22671U 93035A 25353.78750513 .00000842 00000-0 35031-3 0 9991 2 22671 62.9216 204.1464 4922492 29.6341 351.0299 5.64883027424499 0 MOLNIYA 1-87 1 22949U 93079A 25352.72226506 -.00000302 00000-0 00000-0 0 9997 2 22949 64.9673 302.7815 6859183 271.5167 17.5798 2.02851323100901 0 VEP 1 22979U 94007B 25353.33305584 .00000002 00000-0 50066-3 0 9990 2 22979 28.9359 81.0091 7234411 195.2848 118.0000 2.25966585262238 0 SJ-4 1 22996U 94010A 25352.47540806 .00000041 00000-0 13840-3 0 9997 2 22996 29.0944 41.6052 5563208 39.3057 350.1868 4.64087224439039 0 STRV 1A 1 23125U 94034B 25353.86977779 .00001643 00000-0 56575-3 0 9996 2 23125 7.5464 1.5698 6417737 354.0531 1.0017 3.41440539328056 0 COSMOS 2286 1 23194U 94048A 25352.59444697 .00000757 00000-0 00000-0 0 9998 2 23194 66.8237 161.5090 5522981 123.4849 301.7668 2.00519781229847 0 ETS 6 1 23230U 94056A 25353.68466034 -.00000067 00000-0 00000-0 0 9993 2 23230 13.0310 255.0327 5015872 154.7572 8.0159 1.67087863191249 0 MOLNIYA 1-88 1 23420U 94081A 25352.03961428 .00000048 00000-0 00000-0 0 9995 2 23420 64.2615 266.4475 5858666 260.5366 32.6164 3.34495744156505 0 MOLNIYA 3-47 1 23642U 95042A 25353.76876066 -.00001181 00000-0 00000+0 0 9992 2 23642 64.9518 287.0709 6780367 271.5877 18.2524 2.01961500222898 0 ISO 1 23715U 95062A 25353.73200539 .00000523 00000-0 49893-2 0 9992 2 23715 3.5446 320.7786 8381448 316.2447 2.0460 1.02144217111869 0 POLAR 1 23802U 96013A 25352.80568198 .00000192 00000-0 00000+0 0 9997 2 23802 79.6373 229.0871 6290371 215.1832 79.5758 1.29846054142514 0 CHINASAT 7 1 24282U 96048A 25353.48606443 -.00000064 00000-0 00000+0 0 9998 2 24282 16.6730 189.8333 3516053 261.3872 66.4050 1.06658734116807 0 MAGION 5 1 24292U 96050B 25352.86391491 .00000065 00000-0 -17367-3 0 9996 2 24292 62.6716 230.1818 5598213 266.5557 31.5107 4.14732436443744 0 INTERBALL AURORA 1 24293U 96050C 25353.66867616 .00000075 00000-0 00000+0 0 9995 2 24293 62.6735 229.7975 5598316 266.6539 31.4503 4.14734340443878 0 HALCA (MUSES B) 1 24720U 97005A 25352.34212542 .00000049 00000-0 63716-3 0 9995 2 24720 31.3204 30.0558 5985937 44.9781 68.1381 3.84681437402704 0 COSMOS 2340 1 24761U 97015A 25353.05270896 .00000632 00000-0 00000-0 0 9998 2 24761 65.2968 164.5718 6476647 154.3471 262.0080 2.00638728210226 0 COSMOS 2342 1 24800U 97022A 25348.98456727 -.00000523 00000-0 00000-0 0 9995 2 24800 67.5336 263.2273 6599909 131.9062 307.1027 1.99598307208731 0 MOLNIYA 1-90 1 24960U 97054A 25352.97129729 .00000084 00000-0 12777-2 0 9997 2 24960 64.3909 240.0666 5944023 283.4609 20.1237 3.18687661248811 0 MAQSAT H 1 25023U 97066A 25353.41247574 .00000095 00000-0 69696-3 0 9995 2 25023 7.8050 74.5679 6489733 325.1452 46.5373 3.10842292318319 0 MAQSAT B 1 25024U 97066B 25353.31233843 -.00000035 00000-0 -30680-3 0 9996 2 25024 7.7957 78.9605 6509867 315.0896 14.0196 3.08939050317489 0 TEAMSAT 1 25025U 97066C 25353.47033588 -.00000056 00000-0 -40883-3 0 9997 2 25025 7.6712 114.1291 6501312 245.8131 94.6902 3.08013861129664 0 EQUATOR S 1 25068U 97075B 25352.26187709 -.00000089 00000-0 -17671-2 0 9999 2 25068 5.8074 269.6996 8227153 303.7676 4.2028 1.07776941110510 0 COMETS 1 25175U 98011A 25353.09328887 -.00000018 00000-0 00000+0 0 9991 2 25175 30.1935 325.3482 5287311 219.0940 87.4205 4.38922952454959 0 COSMOS 2351 1 25327U 98027A 25353.60564244 -.00000821 00000-0 00000-0 0 9996 2 25327 63.5985 140.8531 7121941 179.9727 180.3749 2.00366386202365 0 MOLNIYA 1-91 1 25485U 98054A 25353.90054958 -.00000107 00000-0 00000+0 0 9996 2 25485 64.6168 311.1840 6734265 285.3885 13.8709 2.36443564209339 0 MAQSAT/ARIANE 5 1 25503U 98059A 25353.46204391 -.00000065 00000-0 -27017-2 0 9995 2 25503 7.3919 318.8047 6997913 29.6655 356.0908 2.24576405222927 0 SEA LAUNCH DEMO 1 25661U 99014A 25353.43643896 -.00000095 00000-0 -10557-2 0 9990 2 25661 1.4326 24.6199 7162256 200.7206 101.3479 2.23256348218095 0 USA 142 1 25669U 99017A 25353.60024388 -.00000099 00000-0 -10594-2 0 9994 2 25669 28.7792 127.6799 7064311 42.7280 354.2309 2.33041609 14101 0 MOLNIYA 3-50 1 25847U 99036A 25352.06138557 .00000286 00000-0 00000-0 0 9991 2 25847 63.5038 174.1243 6764864 278.5590 15.8169 2.00562486193783 0 CXO 1 25867U 99040B 25354.55178789 .00000629 00000-0 00000-0 0 9996 2 25867 53.1580 122.2771 8124205 310.8135 0.2560 0.37797284 16644 0 XMM 1 25989U 99066A 25352.84950202 .00000081 00000-0 00000-0 0 9999 2 25989 65.4033 285.3699 4740231 68.0474 0.2178 0.50133546 22108 0 COSMOS 2368 1 26042U 99073A 25352.54721954 -.00000778 00000-0 00000-0 0 9999 2 26042 67.1314 309.2858 6366868 165.3464 229.2570 2.00517586190309 0 FREGAT RB/CLUSTER 2 1 26106U 00015A 25352.98521790 .00000101 00000-0 43533-4 0 9993 2 26106 65.1033 200.5209 5437067 273.9562 28.7465 4.61254216429894 0 IMAGE 1 26113U 00017A 25353.03091308 -.00000101 00000-0 96396-2 0 9991 2 26113 94.0388 312.8235 7568621 308.6316 5.0213 1.68664638158466 0 CLUSTER II-FM7 1 26410U 00041A 25354.59902070 .00003830 00000-0 00000-0 0 9993 2 26410 147.7214 25.8632 8768955 241.6495 359.9177 0.44843706 19519 0 CLUSTER II-FM8 1 26464U 00045B 25355.52316153 .00003936 00000-0 00000+0 0 9997 2 26464 148.0433 26.6344 8777294 242.2748 359.8882 0.44424386 19519 0 AMSAT OSCAR 40 1 26609U 00072B 25350.53790913 -.00000198 00000-0 00000-0 0 9993 2 26609 9.7168 18.5419 7945257 121.4079 337.4964 1.25587215115219 0 STRV 1C 1 26610U 00072C 25351.84049389 .00000024 00000-0 -30543-2 0 9999 2 26610 6.7767 67.1934 7336457 65.1522 351.4160 2.03535461186392 0 STRV 1D 1 26611U 00072D 25350.80886654 .00000081 00000-0 -17109-2 0 9995 2 26611 6.7658 68.6366 7339227 62.1594 351.9755 2.03398928 86772 0 LRE 1 26898U 01038A 25349.61218182 .00001094 00000-0 33384-3 0 9995 2 26898 28.2167 182.5969 6979164 158.9271 257.2529 2.65476443215850 0 MDS 1 1 27367U 02003A 25353.80971206 .00018506 00000-0 11637-2 0 9991 2 27367 28.4909 196.6055 4174801 242.0950 69.7827 7.12004355380027 0 DASH/VEP 3 1 27368U 02003B 25353.00020274 .00000071 00000-0 36519-3 0 9999 2 27368 28.9479 315.9321 7144164 200.1333 103.3390 2.36982800201752 0 DOUBLESTAR (TC-2) 1 28382U 04029A 25352.05193602 .00017483 00000-0 19774-2 0 9994 2 28382 87.9033 239.9219 7081897 162.2005 248.5306 2.55474980175977 0 DELTA 4 DEMO SPACECRAFT 1 28500U 04050A 25353.78971904 -.00000098 00000-0 00000-0 0 9995 2 28500 14.2850 303.5008 2787685 13.0670 168.4592 1.41309775108355 0 SLOSHSAT 1 28544U 05005C 25352.90231831 .00001017 00000-0 39425-3 0 9992 2 28544 6.9699 83.4972 6940757 103.4484 336.3819 2.69881452186305 0 MAQSAT/ARIANE 5 1 28545U 05005D 25353.40804111 .00000840 00000-0 34316-3 0 9993 2 28545 6.8586 130.7487 7014106 9.2698 358.6684 2.61464019183759 0 THEMIS A 1 30580U 07004A 25353.18261956 -.00000447 00000-0 -20673-2 0 9990 2 30580 5.2852 133.8730 8439022 154.8010 302.9779 0.87835679 39699 0 THEMIS D 1 30797U 07004D 25353.85107942 -.00000456 00000-0 00000-0 0 9997 2 30797 5.4573 88.1829 8388879 203.7437 143.0050 0.87836360 39506 0 THEMIS E 1 30798U 07004E 25353.58253410 -.00000436 00000-0 00000-0 0 9998 2 30798 2.7809 104.3933 8392435 188.3302 71.9669 0.87837916 64330 0 SPIRALE A 1 33751U 09008C 25353.91832081 .00007243 00000-0 14690-2 0 9994 2 33751 2.1049 82.1502 5602874 227.0392 69.4014 4.64274851253849 0 SPIRALE B 1 33752U 09008D 25353.83457416 .00025073 00000-0 23925-2 0 9993 2 33752 1.9305 109.2108 6701545 157.3882 256.7815 3.06689532162615 0 EUTE W3B 1 37206U 10056A 25354.02610671 .00002135 00000-0 59326-3 0 9991 2 37206 2.1842 140.2802 6895872 240.6124 34.2417 2.77107693137192 0 MERIDIAN 3 1 37212U 10058A 25352.38004973 .00000021 00000-0 00000-0 0 9993 2 37212 63.4702 111.0713 6728047 261.4559 23.0831 2.00615299110833 0 MERIDIAN 4 1 37398U 11018A 25352.86326044 .00001011 00000-0 12290-2 0 9990 2 37398 62.1284 103.6484 7466374 263.2458 15.4551 2.00776792107153 0 TACSAT 4 1 37818U 11052A 25354.07917808 .00002430 00000-0 79224-3 0 9991 2 37818 62.8187 242.3084 4643018 278.2098 33.5281 6.14551236313772 0 RBSP A 1 38752U 12046A 25353.85137485 .01963798 -75575-6 99638-3 0 9994 2 38752 9.5582 123.8795 4585408 183.0014 172.8503 6.58623207143117 0 RBSP B 1 38753U 12046B 25353.94699686 .00001834 00000-0 36654-3 0 9997 2 38753 10.1661 260.8025 6390733 272.9552 20.9660 3.47248507138307 0 MERIDIAN 6 1 38995U 12063A 25354.11991769 -.00000402 00000-0 00000+0 0 9994 2 38995 64.4357 20.5980 7302661 229.6695 39.6985 2.00545735 95918 0 MERIDIAN 7 1 40296U 14069A 25353.71404949 .00000105 00000-0 00000+0 0 9992 2 40296 63.4614 233.3104 6725786 271.6556 18.7018 2.00597687 81633 0 MMS 1 1 40482U 15011A 25354.25003471 -.00000612 00000-0 00000+0 0 9996 2 40482 69.3545 351.4293 8498589 163.4395 47.5594 0.28374948 1304 0 MMS 2 1 40483U 15011B 25354.25003471 -.00000612 00000-0 00000+0 0 9997 2 40483 69.3518 351.4199 8500056 163.4560 47.5260 0.28374962 1303 0 MMS 3 1 40484U 15011C 25354.25003471 -.00000611 00000-0 00000+0 0 9997 2 40484 69.3566 351.4364 8499999 163.4519 47.5217 0.28374976 1305 0 MMS 4 1 40485U 15011D 25354.25003471 -.00000612 00000-0 00000+0 0 9999 2 40485 69.3562 351.4287 8501312 163.4388 47.5586 0.28374935 1307 0 COSMOS 2510 1 41032U 15066A 25343.29560059 .00001097 00000-0 00000-0 0 9998 2 41032 63.3383 12.5547 7210620 274.2718 13.8181 2.00699436 73653 0 ARASE (ERG) 1 41896U 16080A 25351.21494818 .00000699 00000-0 10113-2 0 9998 2 41896 31.5251 80.7185 6992998 296.3124 9.7827 2.57244044 83595 0 COSMOS 2518 1 42719U 17027A 25350.97196948 .00001392 00000-0 00000-0 0 9993 2 42719 63.0848 270.9110 7071914 273.3702 15.3267 2.00879207 62745 0 PODSAT 1 43229U 18023B 25352.75111877 .00084719 -48276-6 75461-3 0 9997 2 43229 26.8197 163.5087 3642092 166.7369 206.3103 8.25623373177569 0 MERIDIAN 8 1 44453U 19046A 25352.27904051 .00000007 00000-0 00000-0 0 9992 2 44453 62.9648 73.7976 7012166 274.3166 15.3641 2.00626761 46716 0 CHINASAT 18 1 44493U 19053A 25352.54705855 .00143359 12618-6 36101-3 0 9991 2 44493 28.3043 145.2629 6361883 134.0221 300.3216 3.61952150 63122 0 COSMOS 2541 1 44552U 19065A 25353.82076348 .00000056 00000-0 00000+0 0 9997 2 44552 62.7249 173.5515 6476502 272.3061 20.4014 2.00556833 45620 0 MERIDIAN 9 1 45254U 20015A 25354.00977929 -.00000161 00000-0 00000+0 0 9998 2 45254 65.4565 338.2416 6910927 280.8706 13.9622 2.00615166 42696 0 COSMOS 2546 1 45608U 20031A 25352.57144422 -.00000062 00000-0 00000-0 0 9994 2 45608 63.1438 89.2661 6993708 265.5069 18.7440 2.00554552 40845 0 ARKTIKA-M 1 1 47719U 21016A 25354.05245762 -.00000114 00000-0 00000+0 0 9994 2 47719 63.1764 82.9970 7207926 269.1530 15.5565 2.00630446 35191 0 SHIYAN 10 (SY-10) 1 49258U 21087A 25352.95439429 .00000745 00000-0 00000+0 0 9993 2 49258 63.0907 241.1504 6965670 269.8696 17.4090 2.00652736 30912 0 COSMOS 2552 1 49503U 21113A 25353.48369605 -.00000266 00000-0 00000+0 0 9992 2 49503 62.8814 224.0039 6508105 272.5951 20.1132 2.00540246 29797 0 MERIDIAN 10 1 52145U 22030A 25352.52451513 .00000332 00000-0 00000-0 0 9995 2 52145 62.6653 159.9529 6743859 273.0776 17.8941 2.00597024 27403 0 COSMOS 2563 1 54223U 22145A 25353.73076858 -.00001111 00000-0 00000-0 0 9997 2 54223 63.4650 303.5511 7120373 269.3152 16.2883 2.00479755 22967 0 SHIYAN 10 02 (SY-10 02) 1 54878U 22178A 25353.20482819 .00000757 00000-0 00000+0 0 9992 2 54878 64.0414 341.8519 6979394 268.3976 17.6745 2.00613390 12942 0 INMARSAT 6-F2 1 55683U 23022A 25353.84340921 -.00000339 00000-0 00000-0 0 9991 2 55683 5.0691 35.2604 3073162 213.1459 248.0472 1.00960149 8743 0 ARKTIKA-M 2 1 58584U 23198A 25353.80714545 .00000200 00000-0 00000+0 0 9996 2 58584 63.2250 174.1215 6865408 268.0761 18.8406 2.00602866 14729 0 VELA 11/12 INTERSTAGE 1 60002U 70027D 25354.89859435 -.00000765 00000-0 00000-0 0 9993 2 60002 18.2585 36.0792 7958199 281.7783 358.8932 0.45905482 20175 0 ASBM-1 1 60422U 24143A 25352.67710130 -.00000095 00000-0 00000-0 0 9995 2 60422 62.7421 52.5159 5533552 268.9622 30.5853 1.50424323 8903 0 ASBM-2 1 60423U 24143B 25346.36217116 -.00000088 00000-0 00000-0 0 9993 2 60423 62.6793 52.8356 5528817 268.9535 30.6562 1.50425487 8795 0 TJS-13 1 62188U 24227A 25351.95992917 .00000381 00000-0 00000-0 0 9991 2 62188 63.6464 60.7084 6979955 269.4770 17.2795 2.00608739 7616 0 PROBA-3 CSC 1 62256U 24233A 25353.11969775 -.00000295 00000-0 -12417-2 0 9993 2 62256 59.5509 112.7081 8029412 200.2900 84.7588 1.22074000 4623 0 ASTRANIS UTILITYSAT 1 62454U 24252A 25353.53307916 -.00000055 00000-0 00000-0 0 9999 2 62454 8.9496 334.7243 7510991 233.2672 33.3004 1.00317094 3621 0 BLUE RING PATHFINDER 1 62720U 25011A 25352.95309358 -.00000009 00000-0 00000-0 0 9995 2 62720 29.8471 241.7884 4874618 153.8836 242.2739 3.84308626 12941 0 NVS-02 1 62850U 25020A 25353.44094082 .00000205 00000-0 12519-3 0 9997 2 62850 20.9670 325.2345 7347349 30.5775 356.7086 2.17599926 7063 0 COSMOS 2589 1 64467U 25131A 25353.56407398 -.00000278 00000-0 00000+0 0 9996 2 64467 0.3584 291.3562 2989500 166.4620 286.0091 1.00500733 1786 0 COSMOS 2590 1 64527U 25131C 25353.69492262 -.00000320 00000-0 00000+0 0 9999 2 64527 0.3260 293.3799 3664422 164.0401 351.4873 1.00252678 1814 0 SPAINSAT NG II 1 66144U 25239A 25353.32254902 -.00000179 00000-0 00000-0 0 9995 2 66144 15.8345 240.2859 7621344 189.0904 137.5791 0.96961509 601 0 TJS-21 1 66586U 25269A 25352.70706567 .00001084 00000-0 -59507-1 0 9991 2 66586 63.2733 161.7218 6806869 269.7428 18.6663 2.00580748 558